| time (UTC) | temp F | wind direction | speed MPH | gust MPH | rain 1hr in | rain 24hr in | rain mn in | humidity % | barometer mb |
| 20260502123011 | 30 | 268 | 1.0 | 9.0 | 0.00 | 0.00 | 0.00 | 71 | 1018.2 |
| 20260502121511 | 32 | 208 | 0.0 | 2.0 | 0.00 | 0.00 | 0.00 | 68 | 1018.1 |
| 20260502114506 | 32 | 208 | 0.0 | 3.0 | 0.00 | 0.00 | 0.00 | 71 | 1018.3 |
| 20260502113004 | 32 | 208 | 1.0 | 4.0 | 0.00 | 0.00 | 0.00 | 69 | 1018.2 |
| 20260502111503 | 32 | 208 | 0.0 | 0.0 | 0.00 | 0.00 | 0.00 | 68 | 1018.2 |
| 20260502110002 | 33 | 208 | 0.0 | 0.0 | 0.00 | 0.00 | 0.00 | 69 | 1018.1 |
| 20260502104610 | 33 | 208 | 0.0 | 0.0 | 0.00 | 0.00 | 0.00 | 69 | 1018.2 |
| 20260502103059 | 33 | 208 | 0.0 | 0.0 | 0.00 | 0.00 | 0.00 | 65 | 1018.3 |
| 20260502101610 | 34 | 208 | 0.0 | 4.0 | 0.00 | 0.00 | 0.00 | 65 | 1018.2 |
| 20260502070054 | 38 | 215 | 0.0 | 1.0 | 0.00 | 0.00 | 0.00 | 58 | 1017.8 |
| 20260502064533 | 38 | 215 | 1.0 | 4.0 | 0.00 | 0.00 | 0.00 | 61 | 1017.7 |
| 20260502063034 | 38 | 215 | 3.0 | 4.0 | 0.00 | 0.00 | 0.00 | 60 | 1017.5 |
| 20260502061528 | 38 | 215 | 2.0 | 4.0 | 0.00 | 0.00 | 0.00 | 59 | 1017.6 |
| 20260502060036 | 40 | 215 | 0.0 | 2.0 | 0.00 | 0.00 | 0.00 | 56 | 1017.5 |
| 20260502054538 | 39 | 215 | 3.0 | 6.0 | 0.00 | 0.00 | 0.00 | 59 | 1017.5 |
| 20260502053024 | 40 | 216 | 4.0 | 5.0 | 0.00 | 0.00 | 0.00 | 54 | 1017.4 |
| 20260502051524 | 41 | 216 | 0.0 | 4.0 | 0.00 | 0.00 | 0.00 | 54 | 1017.3 |
| 20260502050024 | 41 | 216 | 2.0 | 5.0 | 0.00 | 0.00 | 0.00 | 52 | 1017.3 |
| 20260502044522 | 42 | 217 | 1.0 | 4.0 | 0.00 | 0.00 | 0.00 | 49 | 1017.3 |
| 20260502043023 | 43 | 217 | 0.0 | 0.0 | 0.00 | 0.00 | 0.00 | 47 | 1017.3 |
| 20260502041534 | 43 | 217 | 3.0 | 6.0 | 0.00 | 0.00 | 0.00 | 46 | 1017.2 |
| 20260502040042 | 45 | 240 | 1.0 | 5.0 | 0.00 | 0.00 | 0.00 | 42 | 1016.8 |
| 20260502034520 | 49 | 140 | 2.0 | 8.0 | 0.00 | 0.00 | 0.00 | 33 | 1016.6 |
| 20260502033028 | 48 | 110 | 5.0 | 9.0 | 0.00 | 0.00 | 0.00 | 36 | 1016.4 |
| 20260502031520 | 50 | 150 | 1.0 | 6.0 | 0.00 | 0.00 | 0.00 | 32 | 1016.3 |
| 20260502030020 | 49 | 143 | 3.0 | 5.0 | 0.00 | 0.00 | 0.00 | 33 | 1016.0 |
| 20260502024519 | 48 | 188 | 3.0 | 4.0 | 0.00 | 0.00 | 0.00 | 39 | 1015.9 |
| 20260502023028 | 46 | 191 | 5.0 | 7.0 | 0.00 | 0.00 | 0.00 | 49 | 1015.7 |
| 20260502021517 | 48 | 195 | 5.0 | 7.0 | 0.00 | 0.00 | 0.00 | 46 | 1015.5 |
| 20260502020017 | 50 | 196 | 5.0 | 7.0 | 0.00 | 0.00 | 0.00 | 45 | 1015.6 |
| 20260502014518 | 51 | 201 | 4.0 | 7.0 | 0.00 | 0.00 | 0.00 | 42 | 1015.6 |
| 20260502013015 | 57 | 219 | 3.0 | 6.0 | 0.00 | 0.00 | 0.00 | 35 | 1015.6 |
| 20260502011515 | 60 | 301 | 1.0 | 5.0 | 0.00 | 0.00 | 0.00 | 25 | 1015.7 |
| 20260502010015 | 60 | 301 | 4.0 | 6.0 | 0.00 | 0.00 | 0.00 | 24 | 1015.8 |
| 20260502004513 | 61 | 302 | 5.0 | 8.0 | 0.00 | 0.00 | 0.00 | 23 | 1016.0 |
| 20260502003112 | 61 | 304 | 5.0 | 10.0 | 0.00 | 0.00 | 0.00 | 22 | 1015.8 |
| 20260502001511 | 62 | 275 | 6.0 | 10.0 | 0.00 | 0.00 | 0.00 | 21 | 1016.0 |
| 20260502000009 | 62 | 16 | 0.0 | 6.0 | 0.00 | 0.00 | 0.00 | 22 | 1016.0 |
| 20260501234512 | 61 | 261 | 2.0 | 10.0 | 0.00 | 0.00 | 0.00 | 22 | 1016.0 |
| 20260501233008 | 62 | 336 | 1.0 | 8.0 | 0.00 | 0.00 | 0.00 | 24 | 1016.1 |
| 20260501231505 | 61 | 300 | 8.0 | 12.0 | 0.00 | 0.00 | 0.00 | 23 | 1016.1 |
| 20260501230004 | 60 | 224 | 3.0 | 8.0 | 0.00 | 0.00 | 0.00 | 23 | 1016.2 |
| 20260501224502 | 60 | 355 | 5.0 | 10.0 | 0.00 | 0.00 | 0.00 | 23 | 1016.1 |
| 20260501223002 | 60 | 284 | 2.0 | 10.0 | 0.00 | 0.00 | 0.00 | 23 | 1016.3 |
| 20260501221611 | 60 | 13 | 2.0 | 8.0 | 0.00 | 0.00 | 0.00 | 23 | 1016.4 |
| 20260501220105 | 60 | 306 | 1.0 | 8.0 | 0.00 | 0.00 | 0.00 | 25 | 1016.6 |
| 20260501214554 | 59 | 39 | 3.0 | 6.0 | 0.00 | 0.00 | 0.00 | 26 | 1016.8 |
| 20260501213052 | 59 | 273 | 4.0 | 7.0 | 0.00 | 0.00 | 0.00 | 25 | 1017.0 |
| 20260501211551 | 59 | 296 | 2.0 | 8.0 | 0.00 | 0.00 | 0.00 | 24 | 1017.3 |
| 20260501210048 | 58 | 313 | 1.0 | 5.0 | 0.00 | 0.00 | 0.00 | 22 | 1017.5 |
| 20260501204547 | 58 | 63 | 1.0 | 10.0 | 0.00 | 0.00 | 0.00 | 27 | 1017.7 |
| 20260501203043 | 58 | 323 | 1.0 | 6.0 | 0.00 | 0.00 | 0.00 | 30 | 1017.7 |
| 20260501201542 | 56 | 247 | 3.0 | 8.0 | 0.00 | 0.00 | 0.00 | 33 | 1017.7 |
| 20260501200039 | 56 | 306 | 4.0 | 8.0 | 0.00 | 0.00 | 0.00 | 37 | 1017.9 |
| 20260501194535 | 55 | 299 | 1.0 | 8.0 | 0.00 | 0.00 | 0.00 | 34 | 1018.1 |
| 20260501193037 | 54 | 304 | 1.0 | 6.0 | 0.00 | 0.00 | 0.00 | 35 | 1018.2 |
| 20260501191533 | 54 | 311 | 2.0 | 8.0 | 0.00 | 0.00 | 0.00 | 35 | 1018.3 |
| 20260501190031 | 54 | 317 | 3.0 | 6.0 | 0.00 | 0.00 | 0.00 | 38 | 1018.5 |
| 20260501184529 | 54 | 81 | 2.0 | 6.0 | 0.00 | 0.00 | 0.00 | 40 | 1018.6 |
| 20260501183024 | 52 | 188 | 2.0 | 5.0 | 0.00 | 0.00 | 0.00 | 40 | 1018.9 |
| 20260501181521 | 52 | 58 | 1.0 | 6.0 | 0.00 | 0.00 | 0.00 | 40 | 1019.0 |
| 20260501180018 | 51 | 303 | 3.0 | 9.0 | 0.00 | 0.00 | 0.00 | 44 | 1019.3 |
| 20260501174515 | 50 | 306 | 4.0 | 9.0 | 0.00 | 0.00 | 0.00 | 43 | 1019.5 |
| 20260501173022 | 49 | 296 | 3.0 | 8.0 | 0.00 | 0.00 | 0.00 | 46 | 1019.6 |
| 20260501171512 | 49 | 32 | 2.0 | 8.0 | 0.00 | 0.00 | 0.00 | 48 | 1019.8 |
| 20260501170008 | 47 | 294 | 2.0 | 7.0 | 0.00 | 0.00 | 0.00 | 52 | 1019.7 |
| 20260501164504 | 47 | 292 | 1.0 | 7.0 | 0.00 | 0.00 | 0.00 | 54 | 1019.9 |
| 20260501163002 | 46 | 277 | 1.0 | 6.0 | 0.00 | 0.00 | 0.00 | 56 | 1019.9 |
| 20260501161558 | 44 | 270 | 3.0 | 7.0 | 0.00 | 0.00 | 0.00 | 59 | 1020.0 |
| 20260501160054 | 43 | 250 | 2.0 | 5.0 | 0.00 | 0.00 | 0.00 | 63 | 1020.1 |
| 20260501154552 | 43 | 227 | 1.0 | 3.0 | 0.00 | 0.00 | 0.00 | 67 | 1020.2 |
| 20260501153050 | 41 | 130 | 0.0 | 3.0 | 0.00 | 0.00 | 0.00 | 68 | 1020.3 |
| 20260501151546 | 41 | 124 | 2.0 | 4.0 | 0.00 | 0.00 | 0.00 | 70 | 1020.5 |
| 20260501150039 | 40 | 123 | 0.0 | 0.0 | 0.00 | 0.00 | 0.00 | 73 | 1020.5 |